FW6701 Weather Reports


Display with metric or nautical units.
time (UTC)temp
F
wind
direction
speed
MPH
gust
MPH
rain 1hr
in
rain 24hr
in
rain mn
in
humidity
%
barometer
mb
20260504081639 34 12 0.0 0.0 0.00 0.00 0.00 95 1013.7
20260504080916 35 12 0.0 0.0 0.00 0.00 0.00 95 1013.9
20260504080416 35 12 0.0 0.0 0.00 0.00 0.00 95 1013.7
20260504080140 35 12 0.0 0.0 0.00 0.00 0.00 94 1013.7
20260504050416 38 13 0.0 0.0 0.00 0.00 0.00 90 1013.6
20260504045916 39 13 0.0 0.0 0.00 0.00 0.00 90 1013.6
20260504045416 39 13 0.0 0.0 0.00 0.00 0.00 89 1013.7
20260504044916 39 13 0.0 0.0 0.00 0.00 0.00 89 1013.9
20260504044415 40 13 0.0 0.0 0.00 0.00 0.00 88 1013.7
20260504044358 40 14 0.0 0.0 0.00 0.00 0.00 86 1013.8
20260504043416 40 14 0.0 0.0 0.00 0.00 0.00 87 1013.9
20260504042916 40 6 0.0 0.0 0.00 0.00 0.00 87 1013.7
20260504042416 40 6 0.0 0.0 0.00 0.00 0.00 86 1013.6
20260504041915 41 6 0.0 0.0 0.00 0.00 0.00 85 1013.7
20260504041416 42 6 0.0 0.0 0.00 0.00 0.00 80 1013.7
20260504040915 41 7 0.0 0.0 0.00 0.00 0.00 77 1013.8
20260504040910 41 6 0.0 0.0 0.00 0.00 0.00 86 1013.7
20260504035916 41 6 0.0 0.0 0.00 0.00 0.00 87 1013.8
20260504035416 41 4 0.0 0.0 0.00 0.00 0.00 84 1013.8
20260504035356 40 327 0.0 0.0 0.00 0.00 0.00 87 1013.8
20260504034415 40 332 0.0 0.0 0.00 0.00 0.00 88 1013.4
20260504033915 40 331 0.0 0.0 0.00 0.00 0.00 88 1013.5
20260504033416 40 333 0.0 0.0 0.00 0.00 0.00 88 1013.5
20260504032915 40 333 0.0 0.0 0.00 0.00 0.00 87 1013.3
20260504032415 40 333 0.0 0.0 0.00 0.00 0.00 87 1013.4
20260504031916 40 333 0.0 0.0 0.00 0.00 0.00 86 1013.5
20260504031416 40 333 0.0 0.0 0.00 0.00 0.00 86 1013.5
20260504030916 40 333 0.0 0.0 0.00 0.00 0.00 87 1013.6
20260504030416 41 333 0.0 0.0 0.00 0.00 0.00 86 1013.4
20260504025915 41 333 0.0 0.0 0.00 0.00 0.00 86 1013.3
20260504025404 41 333 0.0 0.0 0.00 0.00 0.00 86 1013.2
20260504024904 41 333 0.0 0.0 0.00 0.00 0.00 86 1013.2
20260504024404 41 333 0.0 0.0 0.00 0.00 0.00 86 1013.3
20260504024125 41 333 0.0 0.0 0.00 0.00 0.00 86 1013.5
20260504023403 41 333 0.0 0.0 0.00 0.00 0.00 85 1013.2
20260504022903 42 333 0.0 0.0 0.00 0.00 0.00 85 1013.5
20260504022404 42 333 0.0 0.0 0.00 0.00 0.00 85 1013.1
20260504021903 42 333 0.0 0.0 0.00 0.00 0.00 84 1013.4
20260504021404 42 333 0.0 0.0 0.00 0.00 0.00 85 1013.3
20260504020903 43 333 0.0 0.0 0.00 0.00 0.00 83 1013.2
20260504020629 43 333 0.0 0.0 0.00 0.00 0.00 83 1013.6
20260504015904 43 333 0.0 0.0 0.00 0.00 0.00 82 1013.3
20260504015403 44 333 0.0 0.0 0.00 0.00 0.00 82 1013.4
20260504015124 44 333 0.0 0.0 0.00 0.00 0.00 81 1013.4
20260504014404 44 333 0.0 0.0 0.00 0.00 0.00 81 1013.1
20260504013904 44 333 0.0 0.0 0.00 0.00 0.00 80 1013.2
20260504013624 45 333 0.0 0.0 0.00 0.00 0.00 78 1013.1
20260504012904 45 2 0.0 0.0 0.00 0.00 0.00 78 1013.2
20260504012404 46 4 0.0 0.0 0.00 0.00 0.00 79 1013.2
20260504011903 46 4 0.0 0.0 0.00 0.00 0.00 76 1013.3
20260504011403 46 4 0.0 0.0 0.00 0.00 0.00 74 1013.2
20260504010904 47 4 0.0 0.0 0.00 0.00 0.00 73 1013.1
20260504010629 47 4 0.0 0.0 0.00 0.00 0.00 71 1013.3
20260504005904 48 4 0.0 0.0 0.00 0.00 0.00 71 1013.2
20260504005403 49 4 0.0 0.0 0.00 0.00 0.00 66 1013.1
20260504004903 50 4 0.0 0.0 0.00 0.00 0.00 60 1013.0
20260504004625 51 4 0.0 0.0 0.00 0.00 0.00 62 1013.0
20260504003852 51 5 0.0 0.0 0.00 0.00 0.00 51 1013.0
20260504003616 52 5 0.0 0.0 0.00 0.00 0.00 51 1012.8
20260504002852 53 5 0.0 0.0 0.00 0.00 0.00 48 1012.8
20260504002340 53 2 0.0 0.0 0.00 0.00 0.00 51 1012.5
20260504001840 54 3 0.0 0.0 0.00 0.00 0.00 49 1012.8
20260504001600 55 15 0.0 1.0 0.00 0.00 0.00 48 1012.7
20260504000827 55 25 0.0 0.0 0.00 0.00 0.00 41 1012.5
20260504000327 55 330 0.0 1.0 0.00 0.00 0.00 44 1012.7
20260504000316 56 330 0.0 1.0 0.00 0.00 0.00 42 1012.5
20260503235315 56 260 0.0 1.0 0.00 0.00 0.00 39 1012.3
20260503234816 57 323 0.0 1.0 0.00 0.00 0.00 42 1012.1
20260503234315 57 309 0.0 3.0 0.00 0.00 0.00 38 1012.3
20260503233816 58 8 0.0 3.0 0.00 0.00 0.00 37 1012.3
20260503233316 58 12 0.0 3.0 0.00 0.00 0.00 37 1012.5
20260503232815 58 273 0.0 2.0 0.00 0.00 0.00 37 1012.3
20260503232315 58 4 0.0 3.0 0.00 0.00 0.00 37 1012.2
20260503232039 58 16 1.0 4.0 0.00 0.00 0.00 36 1012.4
20260503231316 59 332 0.0 7.0 0.00 0.00 0.00 38 1012.2
20260503230815 59 234 2.0 7.0 0.00 0.00 0.00 35 1012.2
20260503230316 60 315 0.0 6.0 0.00 0.00 0.00 36 1012.1
20260503225816 61 330 2.0 6.0 0.00 0.00 0.00 36 1012.1
20260503225315 60 333 0.0 9.0 0.00 0.00 0.00 35 1012.3
20260503224816 61 278 0.0 9.0 0.00 0.00 0.00 35 1012.2
20260503224317 61 321 0.0 6.0 0.00 0.00 0.00 34 1012.2
20260503223816 61 291 1.0 4.0 0.00 0.00 0.00 34 1012.2
20260503223315 60 294 2.0 7.0 0.00 0.00 0.00 35 1012.1
20260503222815 60 302 4.0 7.0 0.00 0.00 0.00 35 1012.5
20260503222546 61 20 3.0 7.0 0.00 0.00 0.00 34 1012.3
20260503221814 61 331 2.0 7.0 0.00 0.00 0.00 35 1012.1
20260503221534 62 286 2.0 8.0 0.00 0.00 0.00 35 1012.2
20260503220314 61 297 0.0 4.0 0.00 0.00 0.00 35 1012.1
20260503220256 60 248 0.0 7.0 0.00 0.00 0.00 36 1012.2
20260503215314 60 262 4.0 9.0 0.00 0.00 0.00 35 1012.2
20260503214813 60 18 5.0 10.0 0.00 0.00 0.00 36 1012.3
20260503214314 60 279 4.0 9.0 0.00 0.00 0.00 34 1012.2
20260503214034 61 3 1.0 6.0 0.00 0.00 0.00 38 1012.3
20260503213314 60 17 0.0 6.0 0.00 0.00 0.00 38 1012.0
20260503212813 60 306 2.0 4.0 0.00 0.00 0.00 36 1012.0
20260503212544 60 328 1.0 4.0 0.00 0.00 0.00 39 1012.2
20260503211802 60 273 2.0 8.0 0.00 0.00 0.00 36 1012.0
20260503211301 60 23 2.0 9.0 0.00 0.00 0.00 35 1011.9
20260503210802 60 302 2.0 9.0 0.00 0.00 0.00 36 1012.0
20260503210250 60 20 2.0 9.0 0.00 0.00 0.00 38 1012.2
20260503205749 61 11 4.0 8.0 0.00 0.00 0.00 37 1012.1
20260503205249 60 315 4.0 7.0 0.00 0.00 0.00 35 1012.3
20260503204749 61 291 2.0 7.0 0.00 0.00 0.00 35 1012.1
20260503204237 61 297 2.0 7.0 0.00 0.00 0.00 34 1012.1
20260503203737 61 299 3.0 7.0 0.00 0.00 0.00 36 1012.1
20260503203237 60 321 1.0 7.0 0.00 0.00 0.00 36 1012.2
20260503202724 61 314 3.0 7.0 0.00 0.00 0.00 35 1012.2
20260503202442 60 237 2.0 9.0 0.00 0.00 0.00 35 1012.2
20260503201724 61 235 0.0 9.0 0.00 0.00 0.00 38 1012.2
20260503201225 61 259 5.0 8.0 0.00 0.00 0.00 34 1012.2
20260503200725 61 290 2.0 7.0 0.00 0.00 0.00 35 1012.2
20260503200442 60 3 1.0 10.0 0.00 0.00 0.00 38 1012.5
20260503195725 59 277 6.0 10.0 0.00 0.00 0.00 36 1012.4
20260503195224 60 330 4.0 10.0 0.00 0.00 0.00 36 1012.5
20260503194726 60 318 2.0 6.0 0.00 0.00 0.00 35 1012.4
20260503194223 61 317 0.0 4.0 0.00 0.00 0.00 37 1012.4
20260503193723 59 310 1.0 4.0 0.00 0.00 0.00 36 1012.8
20260503193223 59 308 2.0 8.0 0.00 0.00 0.00 35 1012.7
20260503192723 58 306 1.0 8.0 0.00 0.00 0.00 38 1012.8
20260503192449 60 288 2.0 8.0 0.00 0.00 0.00 35 1012.7
20260503191949 58 44 1.0 7.0 0.00 0.00 0.00 40 1013.0
20260503191223 59 214 1.0 6.0 0.00 0.00 0.00 38 1012.9
20260503190723 61 118 2.0 6.0 0.00 0.00 0.00 37 1013.1
20260503190222 58 235 0.0 7.0 0.00 0.00 0.00 40 1012.9
20260503185723 58 295 2.0 7.0 0.00 0.00 0.00 36 1013.3
20260503185222 58 294 4.0 7.0 0.00 0.00 0.00 37 1013.2
20260503184724 58 245 1.0 7.0 0.00 0.00 0.00 37 1013.2
20260503184718 58 12 2.0 8.0 0.00 0.00 0.00 35 1013.4
20260503184211 58 270 2.0 8.0 0.00 0.00 0.00 37 1013.4
20260503183223 60 317 5.0 9.0 0.00 0.00 0.00 37 1013.4
20260503182723 58 319 2.0 10.0 0.00 0.00 0.00 39 1013.7
20260503182712 57 314 6.0 10.0 0.00 0.00 0.00 37 1013.7
20260503181723 58 305 2.0 9.0 0.00 0.00 0.00 39 1013.4
20260503181223 57 10 2.0 9.0 0.00 0.00 0.00 38 1013.7
20260503180722 58 10 2.0 7.0 0.00 0.00 0.00 39 1013.5
20260503180444 57 13 1.0 6.0 0.00 0.00 0.00 36 1013.6
20260503175723 58 226 2.0 7.0 0.00 0.00 0.00 39 1013.9
20260503175222 57 225 2.0 7.0 0.00 0.00 0.00 43 1013.6
20260503174722 56 269 2.0 6.0 0.00 0.00 0.00 38 1013.7
20260503174223 56 1 1.0 11.0 0.00 0.00 0.00 40 1013.9
20260503173723 57 305 3.0 11.0 0.00 0.00 0.00 39 1013.8
20260503173446 58 21 4.0 8.0 0.00 0.00 0.00 37 1013.9
20260503172723 58 274 1.0 8.0 0.00 0.00 0.00 40 1013.6
20260503172223 57 317 1.0 7.0 0.00 0.00 0.00 39 1013.9
20260503171722 57 7 2.0 7.0 0.00 0.00 0.00 39 1014.0
20260503171223 56 5 2.0 8.0 0.00 0.00 0.00 41 1013.8
20260503170722 56 0 0.0 8.0 0.00 0.00 0.00 40 1014.3
20260503170222 56 323 1.0 7.0 0.00 0.00 0.00 39 1014.4
20260503150926 51 19 4.0 7.0 0.00 0.00 0.00 39 1014.8
20260503150647 52 333 1.0 7.0 0.00 0.00 0.00 42 1014.9
20260503140134 49 250 2.0 9.0 0.00 0.00 0.00 45 1015.2
20260503131121 47 272 3.0 6.0 0.00 0.00 0.00 57 1015.4
20260503131054 46 11 2.0 6.0 0.00 0.00 0.00 56 1015.6
20260503130706 46 1 0.0 4.0 0.00 0.00 0.00 55 1015.5
20260503120121 43 281 2.0 9.0 0.00 0.00 0.00 63 1015.3
20260503110621 41 331 1.0 7.0 0.00 0.00 0.00 65 1014.5
20260503110120 41 305 2.0 4.0 0.00 0.00 0.00 65 1014.4
20260503100109 40 323 2.0 7.0 0.00 0.00 0.00 65 1013.5